Torna al catalogo

STARLINK-30854

AttivoComunicazioniVLEO
NORAD 58244·PAYLOAD·🇺🇸 United States

Lanciato Nov 8, 2023 da Cape Canaveral Space Force Station

Loading…

Prossimi Passaggi (prossime 24 ore)

TLE

AggiornatoSource: CelesTrak SupGP

Epoca: Sep 14, 2026, 13:56 UTC

1 58244C 23171Q   26257.58104167  .00053419  00000+0  19343-2 0  2571
2 58244  43.0007 298.5811 0001610 271.5335  20.3449 15.27561430    14

Traccia STARLINK-30854 in tempo reale con AllMySat

Download on the App Store